This is the latest recevied weather packets stored in our database for station/object KQ4NAL. If no packets are shown the sender has not sent any weather packets the latest 10 day(s).
| Time | Temp. | Humidity | Pressure | Rain* | Wind** | Luminosity | Snow |
|---|---|---|---|---|---|---|---|
| 1778004339 | 20.56° C | 67% | 1010.4 hPa | 0 mm | - | 298 W/m² | - |
| 1778004038 | 20.56° C | 68% | 1010.5 hPa | 0 mm | - | 288 W/m² | - |
| 1778003737 | 20.56° C | 68% | 1010.4 hPa | 0 mm | - | 247 W/m² | - |
| 1778003435 | 20.56° C | 67% | 1010.4 hPa | 0 mm | - | 256 W/m² | - |
| 1778003132 | 20.56° C | 67% | 1010.4 hPa | 0 mm | - | 269 W/m² | - |
| 1778002828 | 20.56° C | 67% | 1010.6 hPa | 0 mm | - | 270 W/m² | - |
| 1778002525 | 20.56° C | 67% | 1010.3 hPa | 0 mm | - | 281 W/m² | - |
| 1778002222 | 20.56° C | 67% | 1010.3 hPa | 0 mm | - | 277 W/m² | - |
| 1778001920 | 20.56° C | 66% | 1010.6 hPa | 0 mm | - | 323 W/m² | - |
| 1778001615 | 20.56° C | 68% | 1010.6 hPa | 0 mm | - | 338 W/m² | - |
| 1778001311 | 20.56° C | 67% | 1010.5 hPa | 0 mm | - | 337 W/m² | - |
| 1778001008 | 20.56° C | 66% | 1010.4 hPa | 0 mm | - | 295 W/m² | - |
| 1778000705 | 20.56° C | 67% | 1010.4 hPa | 0 mm | - | 234 W/m² | - |
| 1778000400 | 20.56° C | 68% | 1010.5 hPa | 0 mm | - | 298 W/m² | - |
| 1778000096 | 20.56° C | 66% | 1010.8 hPa | 0 mm | - | 363 W/m² | - |
| 1777999792 | 20.56° C | 67% | 1010.6 hPa | 0 mm | - | 327 W/m² | - |
| 1777999488 | 20.56° C | 67% | 1010.8 hPa | 0 mm | - | 310 W/m² | - |
| 1777999186 | 20° C | 67% | 1010.8 hPa | 0 mm | - | 265 W/m² | - |
| 1777998884 | 20° C | 66% | 1010.6 hPa | 0 mm | - | 282 W/m² | - |
| 1777998584 | 20° C | 66% | 1010.8 hPa | 0 mm | - | 281 W/m² | - |
| 1777998279 | 20° C | 67% | 1010.6 hPa | 0 mm | - | 299 W/m² | - |
| 1777997976 | 20° C | 67% | 1010.8 hPa | 0 mm | - | 260 W/m² | - |
| 1777997673 | 20° C | 67% | 1010.8 hPa | 0 mm | - | 209 W/m² | - |
| 1777997370 | 20° C | 66% | 1010.6 hPa | 0 mm | - | 210 W/m² | - |
| 1777997069 | 20° C | 67% | 1010.6 hPa | 0 mm | - | 180 W/m² | - |
* Rain latest hour (hover to see other rain measurements)
** Current wind speed in m/s (hover to see current wind gust speed)